Weather in Achayvayam

Russia / Kamchatka Krai     61°00′28″N   170°30′28″E
temp.,
°C
wind,
m/s
gust,
m/s
humid.,
%
clouds,
%
prec.,
mm/h
press.,
hPa
HPBL,
m
28 february, sun
sun2800:00−22nne118098 0.0 102420
03:00−23nne1190100 0.0 102520
06:00−23nne1198100 0.1 102520
09:00−23nne129894 0.1 102622
12:00−20nne239492 0.1 1026215
15:00−19nne349282 0.0 1024267
18:00−22nne339282 0.0 102123
21:00−23nne4485100 0.0 102061
1 march, mon
mon100:00−21nne51279100 0.0 1014274
03:00−20nne71577100 0.0 1007587
06:00−19nne82274100 0.0 1002845
09:00−18nne82274100 0.0 997969
12:00−15nne102179100 0.1 9931178
15:00−14nne7207999 0.1 9901194
18:00−20n6128099 0.2 992437
21:00−23nne4680100 0.0 995158
2 march, tue
tue200:00−26n3481100 0.0 99774
03:00−25nne3377100 0.0 99937
06:00−24nne2377100 0.0 100224
09:00−23nne2378100 0.0 100626
12:00−20ne237795 0.0 1009182
15:00−19ese118283 0.0 101168
18:00−23ese017972 0.0 101420
21:00−24ne017844 0.0 101820
3 march, wed
wed300:00−24nne127852 0.0 102020
03:00−25ne12774 0.0 102220
06:00−26ne11766 0.0 102420
09:00−25ne127523 0.0 102619
12:00−21nne227322 0.0 102793
15:00−20nne237887 0.0 1027106
18:00−21nne227594 0.0 102620
21:00−19nne2379100 0.0 102540
4 march, thu
thu400:00−17nne3486100 0.0 102087
03:00−13ne6991100 0.4 1013222
06:00−10ene41391100 0.7 1005458
09:00−5ese82093100 3.9 996857
12:000se162595100 16.2 9861247
15:000se112296100 16.0 9771369
18:00−3s61190100 22.8 976998
21:00−13sw11158897 0.5 983587